PROFILE

 METAR AND TAF INFORMATION
ADDS - METARS form results

(0237 UTC 20 February 2020)
http://aviationweather.gov/metar/data/
 
LPPR 200230Z 03003KT 9000 NSC 04/03 Q1025
LPPR 200200Z VRB01KT CAVOK 05/04 Q1025
TAF LPPR 192300Z 2000/2024 VRB02KT CAVOK BECMG 2003/2006 08007KT BECMG 2011/2013 34008KT BECMG 2021/2024 08008KT 

 AIRPORT MAP

 RUNWAY INFORMATION
Runway 17 Runway length 11417 ft Runway width 148 ft
Runway elevation 151 ft Runway displaced threshold 984 ft Runway heading 169
Runway 35 Runway length 11417 ft Runway width 148 ft
Runway elevation 226 ft Runway displaced threshold 492 ft Runway heading 349

 AIRPORT FREQUENCIES
Type APP Name APP Frequency 121.1 MHZ
Type ATIS Name ATIS Frequency 124.3 MHZ
Type TWR Name TWR Frequency 118 MHZ

 AIRPORT NEAR NAVIGATION AIDS
Type NDB Name Porto Frequency 367 KHZ
Type NDB Name Porto Frequency 327 KHZ
Type VOR-DME Name Porto Frequency 114100 KHZ